When you browse on this site, cookies collect data to enhance your experience and personalize the content and advertising you see.
Visit our Privacy Policy to learn more. By continuing to use the site, you agree to this use of cookies and data.

Previsão horária em Aarwangen

Hoje, 29 Setembro, Terça-feira

Tempo Temperatura Precipitação Vento Pressão Humidade
00:00 +10°C° 0.8 mm 2 m/s 719 mmHg 96%
01:00 +10°C° 0.8 mm 2 m/s 719 mmHg 96%
02:00 +10°C° 0.9 mm 2 m/s 719 mmHg 96%
03:00 +10°C° 0.9 mm 2 m/s 719 mmHg 96%
04:00 +10°C° 0.9 mm 3 m/s 719 mmHg 96%
05:00 +10°C° 0.7 mm 2 m/s 719 mmHg 96%
06:00 +10°C° 0.7 mm 2 m/s 719 mmHg 96%
07:00 +9°C° 0.7 mm 2 m/s 720 mmHg 96%
08:00 +10°C° 0.3 mm 1 m/s 720 mmHg 96%
09:00 +11°C° 0.3 mm 1 m/s 720 mmHg 95%
10:00 +11°C° 0.3 mm 1 m/s 720 mmHg 95%
11:00 +11°C° 0 mm 1 m/s 720 mmHg 92%
12:00 +12°C° 0 mm 1 m/s 720 mmHg 89%
13:00 +12°C° 0 mm 0 m/s 721 mmHg 86%
14:00 +12°C° 0 mm 0 m/s 721 mmHg 84%
15:00 +13°C° 0 mm 0 m/s 720 mmHg 82%
16:00 +13°C° 0 mm 0 m/s 720 mmHg 81%
17:00 +12°C° 0 mm 0 m/s 720 mmHg 85%
18:00 +11°C° 0 mm 0 m/s 720 mmHg 89%
19:00 +9°C° 0 mm 0 m/s 720 mmHg 94%
20:00 +9°C° 0 mm 0 m/s 720 mmHg 94%
21:00 +9°C° 0 mm 0 m/s 720 mmHg 94%
22:00 +8°C° 0 mm 0 m/s 720 mmHg 94%
23:00 +8°C° 0 mm 0 m/s 720 mmHg 95%

Amanhã, 30 Setembro, Quarta-feira

Tempo Temperatura Precipitação Vento Pressão Humidade
00:00 +8°C° 0 mm 0 m/s 720 mmHg 95%
01:00 +8°C° 0 mm 0 m/s 720 mmHg 95%
02:00 +8°C° 0 mm 0 m/s 719 mmHg 95%
03:00 +8°C° 0 mm 0 m/s 719 mmHg 95%
04:00 +8°C° 0 mm 0 m/s 719 mmHg 95%
05:00 +8°C° 0 mm 0 m/s 718 mmHg 95%
06:00 +8°C° 0 mm 0 m/s 718 mmHg 94%
07:00 +8°C° 0 mm 0 m/s 718 mmHg 94%
08:00 +10°C° 0 mm 0 m/s 718 mmHg 88%
09:00 +13°C° 0 mm 1 m/s 718 mmHg 81%
10:00 +15°C° 0 mm 1 m/s 718 mmHg 74%
11:00 +16°C° 0 mm 1 m/s 718 mmHg 68%
12:00 +19°C° 0 mm 1 m/s 718 mmHg 62%
13:00 +19°C° 0 mm 2 m/s 717 mmHg 55%
14:00 +19°C° 0 mm 2 m/s 717 mmHg 56%
15:00 +20°C° 0 mm 1 m/s 717 mmHg 57%
16:00 +20°C° 0 mm 1 m/s 716 mmHg 59%
17:00 +18°C° 0 mm 1 m/s 716 mmHg 68%
18:00 +14°C° 0 mm 1 m/s 716 mmHg 78%
19:00 +11°C° 0 mm 0 m/s 716 mmHg 88%
20:00 +12°C° 0 mm 1 m/s 715 mmHg 89%
21:00 +11°C° 0 mm 1 m/s 715 mmHg 91%
22:00 +11°C° 0 mm 1 m/s 715 mmHg 92%
23:00 +11°C° 0 mm 1 m/s 715 mmHg 92%

Depois de amanhã, 1 Outubro, Quinta-feira

Tempo Temperatura Precipitação Vento Pressão Humidade
00:00 +10°C° 0 mm 1 m/s 714 mmHg 93%
01:00 +10°C° 0 mm 1 m/s 714 mmHg 93%
02:00 +10°C° 0 mm 1 m/s 714 mmHg 93%
03:00 +10°C° 0 mm 1 m/s 713 mmHg 93%
04:00 +10°C° 0 mm 1 m/s 713 mmHg 93%
05:00 +10°C° 0 mm 1 m/s 713 mmHg 93%
06:00 +10°C° 0 mm 1 m/s 712 mmHg 93%
07:00 +10°C° 0 mm 1 m/s 712 mmHg 93%
08:00 +12°C° 0 mm 1 m/s 712 mmHg 86%
09:00 +14°C° 0 mm 1 m/s 712 mmHg 78%
10:00 +16°C° 0 mm 1 m/s 712 mmHg 71%
11:00 +17°C° 0 mm 2 m/s 712 mmHg 67%
12:00 +17°C° 0 mm 2 m/s 712 mmHg 64%
13:00 +18°C° 0 mm 3 m/s 712 mmHg 61%
14:00 +16°C° 0.2 mm 3 m/s 712 mmHg 70%
15:00 +15°C° 0.2 mm 2 m/s 711 mmHg 78%
16:00 +14°C° 0.2 mm 2 m/s 711 mmHg 87%
17:00 +13°C° 0.2 mm 2 m/s 711 mmHg 89%
18:00 +12°C° 0.2 mm 1 m/s 711 mmHg 92%
19:00 +12°C° 0.2 mm 1 m/s 711 mmHg 94%
20:00 +12°C° 0.2 mm 1 m/s 711 mmHg 95%
21:00 +12°C° 0.2 mm 1 m/s 711 mmHg 95%
22:00 +11°C° 0.2 mm 0 m/s 711 mmHg 96%
23:00 +11°C° 0.1 mm 1 m/s 710 mmHg 96%

2 Outubro, Sexta-feira

Tempo Temperatura Precipitação Vento Pressão Humidade
00:00 +11°C° 0.1 mm 1 m/s 710 mmHg 96%
01:00 +11°C° 0.1 mm 1 m/s 709 mmHg 97%
02:00 +11°C° 0 mm 1 m/s 708 mmHg 97%
03:00 +10°C° 0 mm 1 m/s 707 mmHg 97%
04:00 +10°C° 0 mm 1 m/s 707 mmHg 97%
05:00 +10°C° 0 mm 1 m/s 706 mmHg 97%
06:00 +10°C° 0 mm 1 m/s 706 mmHg 97%
07:00 +10°C° 0 mm 1 m/s 705 mmHg 97%
08:00 +11°C° 0 mm 1 m/s 705 mmHg 94%
09:00 +12°C° 0 mm 1 m/s 705 mmHg 92%
10:00 +13°C° 0 mm 1 m/s 705 mmHg 89%
11:00 +14°C° 0 mm 1 m/s 704 mmHg 85%
12:00 +15°C° 0 mm 1 m/s 704 mmHg 80%
13:00 +16°C° 0 mm 2 m/s 704 mmHg 75%
14:00 +17°C° 0 mm 2 m/s 703 mmHg 75%
15:00 +17°C° 0 mm 2 m/s 703 mmHg 74%
16:00 +17°C° 0 mm 3 m/s 702 mmHg 74%
17:00 +16°C° 0 mm 2 m/s 702 mmHg 79%
18:00 +15°C° 0 mm 2 m/s 701 mmHg 84%
19:00 +13°C° 0 mm 1 m/s 701 mmHg 90%
20:00 +13°C° 0 mm 1 m/s 701 mmHg 90%
21:00 +12°C° 0 mm 1 m/s 701 mmHg 91%
22:00 +11°C° 0 mm 1 m/s 701 mmHg 91%
23:00 +11°C° 0 mm 1 m/s 701 mmHg 91%

3 Outubro, Sábado

Tempo Temperatura Precipitação Vento Pressão Humidade
00:00 +10°C° 0 mm 2 m/s 702 mmHg 90%
01:00 +10°C° 0 mm 2 m/s 702 mmHg 90%
02:00 +9°C° 0.5 mm 2 m/s 702 mmHg 91%
03:00 +10°C° 0.5 mm 1 m/s 702 mmHg 93%
04:00 +9°C° 0.5 mm 1 m/s 703 mmHg 94%
05:00 +9°C° 1.2 mm 1 m/s 703 mmHg 95%
06:00 +9°C° 1.2 mm 1 m/s 704 mmHg 96%
07:00 +9°C° 1.2 mm 1 m/s 704 mmHg 96%
08:00 +9°C° 1.8 mm 1 m/s 705 mmHg 96%
09:00 +9°C° 1.8 mm 1 m/s 705 mmHg 95%
10:00 +9°C° 1.8 mm 1 m/s 705 mmHg 94%
11:00 +9°C° 1.9 mm 1 m/s 705 mmHg 94%
12:00 +9°C° 1.9 mm 1 m/s 706 mmHg 94%
13:00 +8°C° 1.9 mm 2 m/s 706 mmHg 94%
14:00 +7°C° 1.2 mm 2 m/s 706 mmHg 94%
15:00 +7°C° 1.2 mm 2 m/s 707 mmHg 94%
16:00 +7°C° 1.2 mm 2 m/s 707 mmHg 94%
17:00 +7°C° 0.3 mm 2 m/s 707 mmHg 95%
18:00 +7°C° 0.3 mm 1 m/s 707 mmHg 95%
19:00 +7°C° 0.3 mm 1 m/s 707 mmHg 95%
20:00 +6°C° 0 mm 1 m/s 707 mmHg 95%
21:00 +6°C° 0 mm 1 m/s 707 mmHg 95%
22:00 +4°C° 0 mm 0 m/s 707 mmHg 95%
23:00 +4°C° 0 mm 0 m/s 707 mmHg 95%

4 Outubro, Domingo

Tempo Temperatura Precipitação Vento Pressão Humidade
00:00 +4°C° 0 mm 0 m/s 707 mmHg 95%
01:00 +4°C° 0 mm 0 m/s 707 mmHg 95%
02:00 +5°C° 0 mm 1 m/s 707 mmHg 95%
03:00 +4°C° 0 mm 1 m/s 706 mmHg 95%
04:00 +4°C° 0 mm 1 m/s 706 mmHg 96%
05:00 +5°C° 0 mm 1 m/s 706 mmHg 96%
06:00 +5°C° 0 mm 1 m/s 706 mmHg 96%
07:00 +5°C° 0 mm 1 m/s 706 mmHg 96%
08:00 +7°C° 0 mm 1 m/s 706 mmHg 93%
09:00 +7°C° 0 mm 2 m/s 706 mmHg 90%
10:00 +9°C° 0 mm 2 m/s 706 mmHg 87%
11:00 +12°C° 0 mm 2 m/s 706 mmHg 79%
12:00 +13°C° 0 mm 2 m/s 707 mmHg 71%
13:00 +14°C° 0 mm 3 m/s 707 mmHg 63%
14:00 +14°C° 0.1 mm 3 m/s 707 mmHg 68%
15:00 +13°C° 0.1 mm 3 m/s 707 mmHg 73%
16:00 +12°C° 0.1 mm 4 m/s 707 mmHg 78%
17:00 +11°C° 0.7 mm 3 m/s 708 mmHg 83%
18:00 +10°C° 0.7 mm 2 m/s 709 mmHg 88%
19:00 +10°C° 0.7 mm 1 m/s 709 mmHg 94%
20:00 +9°C° 0.2 mm 1 m/s 709 mmHg 94%
21:00 +9°C° 0.2 mm 1 m/s 710 mmHg 94%
22:00 +8°C° 0.2 mm 1 m/s 710 mmHg 94%
23:00 +8°C° 0 mm 1 m/s 710 mmHg 94%
Mostrar mais